Location: Sternwarte Hubelmatt
(47.0367°N, 8.3053°E)
Time: 02:19:12
(UTC+02:00)

UWE-3 - Pass Details

Date: 28 April 2024
Orbit: 569 x 652 km, 97.8° (Epoch: 23 May)

Event Time Altitude Azimuth Distance (km) Brightness Sun altitude
Rises 04:25:33 0° 9° (N) 2,875 ? -16.5°
Reaches altitude 10° 04:27:44 10° 6° (N) 1,980 ? -16.2°
Maximum altitude 04:31:58 59° 287° (WNW) 722 ? -15.7°
Enters shadow 04:34:15 26° 217° (SW) 1,231 ? -15.4°
